Total_Precipitation_Accumulation
0.66 0.66 0.65 0.65 0.65 0.62 0.61 0.59 0.56 0.54 0.51 0.48 0.49 0.48 0.44 0.38 0.32 0.29 0.25 0.27 0.30 0.32 0.43 0.63 0.83 1.11 1.40 1.45 1.50 1.39 1.26 1.21 1.08 0.93 0.90 1.02 1.10 1.07 1.02 1.06 0.97 0.79 0.72
0.69 0.68 0.70 0.65 0.63 0.62 0.61 0.59 0.55 0.52 0.50 0.47 0.43 0.40 0.40 0.39 0.36 0.35 0.33 0.32 0.31 0.30 0.35 0.51 0.70 0.92 1.25 1.47 1.60 1.75 1.58 1.44 1.38 1.18 0.97 0.95 1.03 1.06 1.06 1.06 1.10 1.00 0.84
0.84 0.75 0.72 0.70 0.65 0.65 0.67 0.66 0.62 0.55 0.53 0.48 0.44 0.40 0.36 0.34 0.33 0.36 0.37 0.36 0.37 0.34 0.35 0.44 0.57 0.77 1.01 1.28 1.54 1.81 1.96 1.71 1.63 1.56 1.30 1.05 1.02 1.10 1.14 1.16 1.18 1.22 1.08
0.91 0.91 0.82 0.74 0.68 0.71 0.74 0.76 0.73 0.67 0.57 0.52 0.49 0.44 0.38 0.35 0.32 0.31 0.32 0.34 0.38 0.38 0.37 0.41 0.47 0.61 0.82 1.06 1.33 1.63 2.14 2.09 1.89 1.81 1.75 1.42 1.13 1.09 1.11 1.19 1.26 1.29 1.34
0.95 0.97 0.96 0.89 0.79 0.78 0.77 0.75 0.73 0.70 0.66 0.59 0.54 0.52 0.48 0.42 0.37 0.35 0.32 0.29 0.31 0.37 0.39 0.42 0.46 0.51 0.65 0.85 1.13 1.44 2.01 2.32 2.27 2.20 2.14 1.95 1.53 1.23 1.14 1.18 1.28 1.34 1.43
0.96 0.92 0.98 0.98 0.92 0.86 0.83 0.77 0.73 0.67 0.63 0.61 0.62 0.60 0.54 0.49 0.45 0.42 0.38 0.33 0.30 0.32 0.37 0.42 0.46 0.47 0.54 0.69 0.90 1.17 1.55 1.97 2.22 2.36 2.39 2.41 2.19 1.68 1.37 1.28 1.33 1.47 1.56
1.06 0.98 0.92 0.94 0.95 0.90 0.84 0.80 0.78 0.77 0.73 0.67 0.72 0.77 0.72 0.59 0.52 0.47 0.44 0.42 0.38 0.34 0.35 0.39 0.45 0.50 0.53 0.62 0.73 0.89 1.16 1.54 1.89 2.14 2.26 2.37 2.58 2.38 1.90 1.59 1.48 1.54 1.67
1.05 1.07 0.98 0.91 0.87 0.87 0.88 0.83 0.82 0.81 0.82 0.77 0.75 0.81 0.83 0.80 0.64 0.48 0.43 0.43 0.42 0.41 0.40 0.39 0.41 0.48 0.55 0.57 0.58 0.66 0.82 1.13 1.57 1.98 2.22 2.32 2.52 2.78 2.56 2.06 1.77 1.69 1.77
0.99 1.01 1.02 0.98 0.91 0.85 0.86 0.84 0.80 0.78 0.79 0.75 0.68 0.81 0.89 0.78 0.62 0.52 0.44 0.38 0.38 0.40 0.40 0.41 0.41 0.42 0.49 0.57 0.56 0.54 0.58 0.79 1.19 1.63 2.08 2.34 2.53 2.83 3.01 2.71 2.24 1.98 1.95
0.99 0.96 0.97 0.97 0.99 0.93 0.83 0.79 0.80 0.80 0.82 0.83 0.73 0.65 0.67 0.67 0.70 0.61 0.51 0.46 0.42 0.41 0.40 0.40 0.40 0.40 0.43 0.51 0.57 0.56 0.55 0.63 0.88 1.31 1.77 2.28 2.64 2.91 3.31 3.29 2.94 2.50 2.27
1.06 0.98 0.94 0.94 0.93 0.92 0.84 0.78 0.79 0.81 0.83 0.83 0.80 0.70 0.63 0.55 0.56 0.66 0.56 0.48 0.52 0.48 0.45 0.45 0.45 0.43 0.43 0.46 0.50 0.55 0.61 0.66 0.85 1.12 1.51 2.02 2.73 3.07 3.49 3.73 3.41 2.88 2.52
1.13 1.03 0.92 0.89 0.85 0.82 0.81 0.76 0.70 0.72 0.75 0.76 0.73 0.71 0.72 0.70 0.60 0.62 0.60 0.46 0.46 0.48 0.49 0.52 0.55 0.52 0.49 0.51 0.53 0.64 0.70 0.73 0.89 1.06 1.21 1.58 2.20 2.91 3.39 3.73 3.63 3.14 2.72
1.11 1.03 0.97 0.88 0.82 0.78 0.78 0.77 0.73 0.67 0.67 0.72 0.71 0.67 0.65 0.62 0.57 0.62 0.70 0.62 0.53 0.48 0.51 0.53 0.52 0.56 0.57 0.59 0.61 0.70 0.71 0.75 0.82 0.97 1.02 1.15 1.53 2.16 2.89 3.48 3.80 3.58 3.12
0.99 0.91 0.92 0.88 0.81 0.76 0.78 0.80 0.80 0.73 0.69 0.70 0.68 0.66 0.66 0.61 0.62 0.69 0.79 0.86 0.81 0.59 0.52 0.51 0.47 0.47 0.55 0.58 0.59 0.68 0.63 0.71 0.76 0.86 0.94 0.99 1.14 1.51 2.12 2.83 3.60 4.08 3.80
0.93 0.92 0.91 0.91 0.86 0.85 0.85 0.85 0.85 0.80 0.75 0.73 0.72 0.71 0.72 0.68 0.67 0.68 0.74 0.86 1.07 0.96 0.60 0.44 0.43 0.46 0.54 0.60 0.60 0.57 0.55 0.66 0.72 0.79 0.90 0.94 1.02 1.21 1.57 2.12 2.72 3.62 4.21
0.92 0.92 0.97 0.98 0.93 0.89 0.92 0.94 0.90 0.84 0.84 0.80 0.80 0.81 0.76 0.72 0.74 0.77 0.81 0.81 0.88 1.01 0.81 0.44 0.40 0.42 0.52 0.66 0.75 0.65 0.60 0.74 0.76 0.78 0.80 0.82 0.89 1.04 1.29 1.62 2.06 2.65 3.53
0.93 0.90 0.90 0.98 1.01 0.94 0.88 0.95 0.97 0.93 0.92 0.86 0.83 0.84 0.81 0.77 0.85 0.88 0.92 0.92 0.87 0.90 0.93 0.55 0.44 0.48 0.63 0.74 0.81 0.76 0.74 0.73 0.72 0.76 0.78 0.82 0.85 0.96 1.15 1.38 1.62 1.99 2.63
0.97 0.89 0.86 0.93 1.00 0.99 0.91 0.90 0.93 0.93 0.95 0.92 0.88 0.89 0.88 0.85 0.88 0.91 0.98 0.98 0.90 0.84 0.91 0.76 0.58 0.63 0.72 0.81 0.85 0.82 0.81 0.79 0.70 0.73 0.75 0.84 0.90 0.96 1.09 1.25 1.42 1.63 2.03
1.14 1.00 0.91 0.94 1.02 1.07 1.01 0.92 0.93 0.93 0.90 0.86 0.85 0.90 0.93 0.94 0.89 0.88 0.98 1.03 0.97 0.91 0.93 0.93 0.74 0.68 0.77 0.89 1.00 0.99 0.94 0.92 0.81 0.78 0.79 0.86 0.95 0.96 1.02 1.16 1.34 1.48 1.65
1.21 1.13 1.00 0.95 1.02 1.14 1.17 1.14 1.13 1.05 0.95 0.85 0.77 0.79 0.88 1.01 1.02 1.03 1.07 1.06 1.08 1.12 1.11 1.09 0.94 0.83 0.88 0.97 1.11 1.17 1.13 1.07 1.00 0.91 0.93 0.98 1.03 1.05 1.01 1.01 1.07 1.18 1.34
1.09 1.11 1.08 1.02 1.03 1.23 1.47 1.63 1.51 1.22 1.02 0.90 0.75 0.71 0.80 1.05 1.23 1.39 1.45 1.34 1.35 1.47 1.45 1.39 1.27 1.12 1.02 1.08 1.18 1.17 1.23 1.16 1.15 1.08 1.03 1.04 0.99 0.96 0.94 0.94 0.97 1.01 1.10
1.04 1.05 1.04 1.03 1.02 1.20 1.57 1.79 1.47 1.13 0.98 0.92 0.84 0.74 0.79 1.03 1.17 1.30 1.43 1.41 1.46 1.65 1.76 1.70 1.54 1.33 1.04 0.94 1.02 1.21 1.41 1.55 1.49 1.25 1.15 1.16 1.00 0.97 0.92 0.84 0.93 0.99 1.03
1.03 1.02 0.99 0.97 0.94 1.01 1.36 1.59 1.37 1.06 0.94 0.90 0.86 0.80 0.82 0.92 1.05 1.07 1.17 1.20 1.22 1.40 1.65 1.75 1.70 1.33 1.11 1.01 1.20 1.43 1.50 1.60 1.49 1.41 1.42 1.49 1.20 1.07 0.95 0.95 1.04 1.01 1.05
1.00 1.00 0.99 0.95 0.91 0.95 1.23 1.49 1.32 1.05 0.97 0.91 0.90 0.84 0.78 0.81 0.93 1.09 1.17 1.12 1.04 1.12 1.36 1.56 1.74 1.54 1.33 1.35 1.61 1.86 1.97 1.99 1.76 1.63 1.59 1.78 1.47 1.22 1.09 1.04 1.10 1.03 1.00
0.99 0.96 0.94 0.96 0.91 0.89 1.14 1.50 1.40 1.09 1.01 0.94 0.94 0.88 0.78 0.74 0.92 1.08 1.06 1.04 0.96 1.01 1.14 1.34 1.48 1.55 1.57 1.72 2.01 2.39 2.55 2.53 2.28 1.97 1.76 1.78 1.70 1.54 1.48 1.41 1.32 1.22 1.06
0.91 0.93 0.89 0.89 0.87 0.83 0.99 1.40 1.52 1.14 1.04 0.96 0.95 0.91 0.97 0.95 1.03 1.05 0.97 1.02 1.11 1.00 0.96 1.01 1.06 1.11 1.17 1.31 1.71 2.14 2.46 2.56 2.34 2.26 1.98 1.78 1.79 1.81 2.14 1.95 1.59 1.31 1.14